Overview Statistics Trail Chart Weather Telemetry Raw packets
 

This is the latest recevied weather packets stored in our database for station/object KB1WCR. If no packets are shown the sender has not sent any weather packets the latest 10 day(s).

<< 68 69 70 71 72 73 74 >>
Time Temp. Humidity Pressure Rain* Wind** Luminosity Snow
1787922975 22.22° C 95% 1015.9 hPa 0 mm - 141 W/m² -
1787922670 22.22° C 95% 1015.8 hPa 0 mm - 191 W/m² -
1787922369 22.78° C 95% 1015.8 hPa 0 mm - 228 W/m² -
1787922068 21.67° C 97% 1016 hPa 0 mm - 253 W/m² -
1787921766 21.67° C 97% 1015.9 hPa 0 mm - 251 W/m² -
1787921462 21.11° C 99% 1015.9 hPa 0 mm - 139 W/m² -
1787921156 21.11° C 99% 1015.8 hPa 0 mm - 117 W/m² -
1787920851 21.11° C 99% 1015.8 hPa 0 mm - 109 W/m² -
1787920546 21.11° C 99% 1016 hPa 0 mm - 107 W/m² -
1787920245 21.11° C 99% 1016 hPa 0 mm - 84 W/m² -
1787919933 21.11° C 99% 1016.1 hPa 0 mm - 104 W/m² -
1787919631 21.11° C 99% 1016 hPa 0 mm - 114 W/m² -
1787919327 20.56° C 99% 1016 hPa 0 mm - 88 W/m² -
1787919023 20.56° C 99% 1015.9 hPa 0 mm - 121 W/m² -
1787918718 20.56° C 99% 1015.8 hPa 0 mm - 141 W/m² -
1787918416 20.56° C 99% 1016.1 hPa 0 mm - 115 W/m² -
1787918110 20.56° C 99% 1015.9 hPa 0 mm - 130 W/m² -
1787917804 20° C 99% 1015.8 hPa 0 mm - 96 W/m² -
1787917501 20° C 99% 1015.7 hPa 0 mm - 87 W/m² -
1787917196 20° C 99% 1016 hPa 0 mm - 64 W/m² -
1787916896 20° C 99% 1016.1 hPa 0 mm - 83 W/m² -
1787916595 20° C 99% 1016 hPa 0 mm - 86 W/m² -
1787916290 20° C 99% 1015.7 hPa 0 mm - 97 W/m² -
1787915985 20° C 99% 1016 hPa 0 mm - 68 W/m² -
1787915680 19.44° C 99% 1015.8 hPa 0 mm - 56 W/m² -

* Rain latest hour (hover to see other rain measurements)
** Current wind speed in m/s (hover to see current wind gust speed)